sat.trackr.live / text

‹ back to catalog

STARLINK-37003

NORAD 68170 · 2026-050D

PAYLOAD ACTIVE UNKNOWN

§ Identity

Operator
Country
US
Launch date
2026-03-14
Launch site
AFETR
Launch vehicle
Mass (kg)
RCS (m²)

Purposes: comms

External: N2YO · Heavens-Above · Gunter

§ Orbital elements

Epoch: 2026-09-20T01:19:52.691808Z

Period
93.85 min
Inclination
53.1563°
Eccentricity
0.0001135
Mean motion
15.34399433 rev/d
Perigee alt
461.9 km
Apogee alt
463.5 km
Semi-major
6,840.8 km
B*
5.0354e-4
RAAN
79.5289°
Arg perigee
84.6210°
Mean anomaly
275.4922°
Rev number
3,050

§ Raw data

STARLINK-370031 68170U 26050D   26263.05547097  .00016674  00000+0  50354-3 0  99942 68170  53.1563  79.5289 0001135  84.6210 275.4922 15.34399433 30501

JSON: /api/v1/satellites/68170 · /tle

For live sub-satellite position, see the globe view (requires WebGL).

§ Visibility from observer

Set your observer location to see the next 7 days of passes ≥ 10°. The values pass through the URL so the page stays shareable.

No JS? Fill the form by hand. The geolocation button needs JavaScript.